Regional Weather Roundup
Issued by NWS

Home | Current Version | Previous Version | Graphics & Text | Print | Product List | Glossary Off
Versions: 1 2 3 4 5 6 7 8 9 10 11 12 13 14 15 16 17 18 19 20 21 22 23 24 25 26 27 28 29 30 31 32 33 34 35 36 37 38 39 40 41 42 43 44 45 46 47 48 49 50

000
ASUS43 KDMX 231307
RWRIA

WEATHER ROUNDUP FOR IOWA
NATIONAL WEATHER SERVICE DES MOINES IA
800 AM CDT WED JUL 23 2014

NOTE: "FAIR" INDICATES FEW OR NO CLOUDS BELOW 12,000 FEET WITH NO
SIGNIFICANT WEATHER AND/OR OBSTRUCTIONS TO VISIBILITY.

* - THESE STATIONS ARE NOT NWS STATIONS...THUS NOT UNDER NWS
QUALITY CONTROL.  THEY ALSO DO NOT REPORT WEATHER SUCH
AS PRECIPITATION OR FOG.

IAZ001>003-012>014-020>022-031>034-043>046-231400-
   NORTHWEST IOWA

CITY           SKY/WX    TMP DP  RH WIND       PRES   REMARKS
CARROLL *      SUNNY     63  59  88 N7        30.24R
CHEROKEE *     SUNNY     63  59  88 N8        30.27R
DENISON *      SUNNY     64  59  82 N7        30.24R
LE MARS *      SUNNY     63  59  88 VRB3      30.28S
ORANGE CITY *  SUNNY     64  55  72 NE3       30.29R
SHELDON *      SUNNY     63  59  88 NE6       30.28R
SIOUX CITY     MOSUNNY   68  58  70 NE7       30.27R
SPENCER        SUNNY     64  57  78 N8        30.28R
STORM LAKE *   SUNNY     64  59  82 N7        30.27R
$$

IAZ055>058-069>071-079>083-090>094-231400-
   SOUTHWEST IOWA

CITY           SKY/WX    TMP DP  RH WIND       PRES   REMARKS
ATLANTIC *     SUNNY     64  59  82 N5        30.22R
AUDUBON *      SUNNY     64  61  88 N5        30.24R
CLARINDA *     SUNNY     66  63  88 N7        30.22R
COUNCIL BLFS * SUNNY     66  61  82 N8        30.22S
CRESTON *      SUNNY     66  59  77 N10       30.20R
HARLAN  *      SUNNY     63  59  88 VRB3      30.27R
LAMONI         SUNNY     69  63  81 NE6       30.17R
RED OAK *      MOSUNNY   66  61  82 N7        30.22R
SHENANDOAH *   SUNNY     64  61  88 N5        30.22R
$$

IAZ047>049-059>061-072>074-084-231400-
   CENTRAL IOWA

CITY           SKY/WX    TMP DP  RH WIND       PRES   REMARKS
AMES           MOSUNNY   67  59  75 NE6       30.20R
ANKENY *       SUNNY     66  61  82 NE10      30.18S
CHARITON *     SUNNY     68  64  88 N5        30.17R
DES MOINES     MOSUNNY   71  60  68 NE10      30.17S
GRINNELL*      SUNNY     68  63  83 NE10G17   30.18S
KNOXVILLE *    SUNNY     70  63  78 NE8       30.16R
MARSHALLTOWN   SUNNY     67  62  84 N8        30.19R
PELLA *        SUNNY     70  64  83 N6        30.18S
PERRY *          N/A     66  59  77 N6        30.21R
$$

IAZ004>006-015-016-023>025-035-036-231400-
   NORTH CENTRAL IOWA

CITY           SKY/WX    TMP DP  RH WIND       PRES   REMARKS
ALGONA *       SUNNY     63  57  82 N7        30.26R
CLARION *      SUNNY     64  61  88 NE6       30.22S
ESTHERVILLE    SUNNY     63  56  78 N10       30.27R
FORT DODGE *   SUNNY     63  57  82 N5        30.24R
MASON CITY     SUNNY     64  60  87 N5        30.25R
FOREST CITY *  MOSUNNY   64  59  82 CALM      30.25R
IOWA FALLS *     N/A     68  59  73 NE7       30.22S
$$

IAZ007>011-017>019-026>030-037>042-050>054-066-231400-
   NORTHEAST IOWA

CITY           SKY/WX    TMP DP  RH WIND       PRES   REMARKS
CEDAR RAPIDS   SUNNY     69  60  73 NE13      30.16R
CHARLES CITY * SUNNY     66  61  82 NE6       30.23R
DECORAH *      SUNNY     66  61  82 N5        30.22R
DUBUQUE        SUNNY     66  60  81 NE9       30.19R
MONTICELLO *   SUNNY     66  63  88 NE8G14    30.17R
OELWEIN *      SUNNY     66  61  82 NE8       30.22R
WATERLOO       MOSUNNY   68  61  78 NE7       30.20R
$$

IAZ064-065-067-068-078-231400-
   EAST CENTRAL IOWA

CITY           SKY/WX    TMP DP  RH WIND       PRES   REMARKS
DAVENPORT      SUNNY     68  62  81 NE15      30.14S
IOWA CITY      SUNNY     70  63  78 NE14      30.16R
MT. PLEASANT * SUNNY     72  64  78 N6        30.13R
MUSCATINE *    SUNNY     70  63  78 NE10G17   30.13S
QUAD CITIES    SUNNY     71  62  73 NE8       30.12S
$$

IAZ062-063-075>077-085>089-095>099-231400-
   SOUTHEAST IOWA

CITY           SKY/WX    TMP DP  RH WIND       PRES   REMARKS
BURLINGTON     SUNNY     72  66  81 NE15      30.10S
FAIRFIELD *    SUNNY     70  64  83 NE13      30.15R
FORT MADISON * SUNNY     73  68  83 NE8       30.12S
KEOKUK *       SUNNY     73  66  78 NE9G17    30.10S
OSKALOOSA *      N/A     70  64  83 NE9       30.15S
CENTERVILLE *  SUNNY     70  66  88 N6        30.17S
OTTUMWA        SUNNY     69  64  84 NE8       30.14S
WASHINGTON *   SUNNY     70  66  88 NE9       30.15R
$$

ABBREVIATIONS USED IN REMARKS
   TC - TEMPERATURES IN CELSIUS
  WCI - WIND CHILL INDEX
   HX - HEAT INDEX
  VSB - VISIBILITY
$$




USA.gov is the U.S. government's official web portal to all federal, state and local government web resources and services.